User: anonymous   Login
Location: Unspecified
(0.0000°N, 0.0000°E)
Time: 05:44:38
(UTC+00:00)
Language:

STARLINK-4174 - Orbit

View from above orbital plane
View from above orbital plane
View from above satellite
View from above satellite

Ground track
Ground track

The orbit is defined by the following mean orbital elements,

1 53276U          26145.40549714 +.00000000 +00000-0 -62276-3 0 00005
2 53276  53.2138 199.7302 0001017  99.4972 260.6135 15.08892855    01
Epoch (UTC): 25 May 2026 09:43:54
Eccentricity: 0.0001017
inclination: 53.2138°
perigee height: 539 km
apogee height: 540 km
right ascension of ascending node: 199.7302°
argument of perigee: 99.4972°
revolutions per day: 15.08892855
mean anomaly at epoch: 260.6135°

The dashed part of the orbit path shows where the satellite is in the earth's shadow,  

DLR